When you browse on this site, cookies collect data to enhance your experience and personalize the content and advertising you see.
Visit our Privacy Policy to learn more. By continuing to use the site, you agree to this use of cookies and data.
  • In Germany
  • List of Countries
  • For 7 days
  • Water Temperature
  • Weather Map
  • Weather Widgets
  • user-avatar
    Login

    Hourly Weather Kaprun

    Today, 17 November, Sunday

    Time Temperature Precipitation Wind Pressure Humidity
    00:00 -3°C° 1.7 mm 1 mps 590 mmHg 96%
    01:00 -3°C° 0 mm 1 mps 589 mmHg 97%
    02:00 -3°C° 3.9 mm 1 mps 589 mmHg 98%
    03:00 -5°C° 3.9 mm 2 mps 588 mmHg 98%
    04:00 -4°C° 3.9 mm 2 mps 588 mmHg 98%
    05:00 -4°C° 3.4 mm 2 mps 588 mmHg 98%
    06:00 -3°C° 3.4 mm 2 mps 588 mmHg 98%
    07:00 -4°C° 3.4 mm 3 mps 587 mmHg 99%
    08:00 -4°C° 5 mm 3 mps 587 mmHg 99%
    09:00 -4°C° 5 mm 3 mps 587 mmHg 99%
    10:00 -2°C° 5 mm 3 mps 587 mmHg 99%
    11:00 -2°C° 6.6 mm 3 mps 586 mmHg 99%
    12:00 -2°C° 6.6 mm 3 mps 586 mmHg 99%
    13:00 -2°C° 6.6 mm 3 mps 586 mmHg 99%
    14:00 -2°C° 3.8 mm 3 mps 585 mmHg 99%
    15:00 -4°C° 3.8 mm 3 mps 585 mmHg 99%
    16:00 -4°C° 3.8 mm 3 mps 585 mmHg 98%
    17:00 -4°C° 2.5 mm 3 mps 585 mmHg 98%
    18:00 -4°C° 2.5 mm 3 mps 586 mmHg 98%
    19:00 -4°C° 2.5 mm 3 mps 586 mmHg 98%
    20:00 -4°C° 1.3 mm 3 mps 586 mmHg 97%
    21:00 -4°C° 1.3 mm 3 mps 587 mmHg 96%
    22:00 -4°C° 1.3 mm 3 mps 587 mmHg 95%
    23:00 -4°C° 0.4 mm 3 mps 587 mmHg 95%

    Tomorrow, 18 November, Monday

    Time Temperature Precipitation Wind Pressure Humidity
    00:00 -4°C° 0.4 mm 3 mps 587 mmHg 94%
    01:00 -4°C° 0.4 mm 3 mps 587 mmHg 94%
    02:00 -5°C° 0 mm 3 mps 587 mmHg 94%
    03:00 -6°C° 0 mm 3 mps 587 mmHg 93%
    04:00 -6°C° 0 mm 3 mps 587 mmHg 93%
    05:00 -7°C° 0 mm 3 mps 587 mmHg 93%
    06:00 -7°C° 0 mm 3 mps 587 mmHg 93%
    07:00 -7°C° 0 mm 2 mps 587 mmHg 92%
    08:00 -6°C° 0 mm 2 mps 588 mmHg 93%
    09:00 -6°C° 0 mm 2 mps 589 mmHg 94%
    10:00 -5°C° 0 mm 2 mps 589 mmHg 94%
    11:00 -5°C° 0 mm 2 mps 589 mmHg 94%
    12:00 -4°C° 0 mm 2 mps 590 mmHg 93%
    13:00 -4°C° 0 mm 2 mps 590 mmHg 92%
    14:00 -5°C° 0 mm 2 mps 590 mmHg 93%
    15:00 -6°C° 0 mm 2 mps 589 mmHg 93%
    16:00 -7°C° 0 mm 2 mps 589 mmHg 94%
    17:00 -8°C° 0 mm 3 mps 589 mmHg 93%
    18:00 -9°C° 0 mm 3 mps 589 mmHg 93%
    19:00 -10°C° 0 mm 3 mps 589 mmHg 92%
    20:00 -10°C° 0 mm 3 mps 590 mmHg 92%
    21:00 -9°C° 0 mm 3 mps 590 mmHg 92%
    22:00 -9°C° 0 mm 3 mps 590 mmHg 92%
    23:00 -8°C° 0.2 mm 2 mps 590 mmHg 92%

    Day after tomorrow, 19 November, Tuesday

    Time Temperature Precipitation Wind Pressure Humidity
    00:00 -8°C° 0.2 mm 2 mps 590 mmHg 92%
    01:00 -8°C° 0.2 mm 2 mps 590 mmHg 92%
    02:00 -7°C° 0.3 mm 2 mps 590 mmHg 92%
    03:00 -7°C° 0.3 mm 2 mps 590 mmHg 92%
    04:00 -6°C° 0.3 mm 2 mps 590 mmHg 92%
    05:00 -6°C° 0.4 mm 2 mps 590 mmHg 92%
    06:00 -6°C° 0.4 mm 2 mps 590 mmHg 92%
    07:00 -7°C° 0.4 mm 3 mps 590 mmHg 92%
    08:00 -5°C° 0.6 mm 2 mps 591 mmHg 93%
    09:00 -4°C° 0.6 mm 2 mps 591 mmHg 94%
    10:00 -4°C° 0.6 mm 2 mps 592 mmHg 95%
    11:00 -1°C° 1.2 mm 1 mps 592 mmHg 96%
    12:00 -1°C° 1.2 mm 1 mps 592 mmHg 96%
    13:00 -1°C° 1.2 mm 1 mps 592 mmHg 97%
    14:00 -1°C° 0.3 mm 1 mps 592 mmHg 97%
    15:00 -2°C° 0.3 mm 1 mps 592 mmHg 98%
    16:00 -2°C° 0.3 mm 1 mps 592 mmHg 98%
    17:00 -2°C° 0.3 mm 1 mps 592 mmHg 98%
    18:00 -3°C° 0.3 mm 1 mps 592 mmHg 98%
    19:00 -3°C° 0.3 mm 1 mps 592 mmHg 98%
    20:00 -3°C° 0.3 mm 1 mps 592 mmHg 98%
    21:00 -4°C° 0.3 mm 1 mps 592 mmHg 98%
    22:00 -5°C° 0.3 mm 0 mps 592 mmHg 98%
    23:00 -4°C° 0.2 mm 1 mps 592 mmHg 97%

    20 November, Wednesday

    Time Temperature Precipitation Wind Pressure Humidity
    00:00 -4°C° 0.2 mm 1 mps 592 mmHg 97%
    01:00 -6°C° 0.2 mm 1 mps 592 mmHg 96%
    02:00 -6°C° 0 mm 1 mps 592 mmHg 96%
    03:00 -6°C° 0 mm 1 mps 592 mmHg 95%
    04:00 -6°C° 0 mm 1 mps 592 mmHg 95%
    05:00 -6°C° 0 mm 1 mps 592 mmHg 95%
    06:00 -4°C° 0 mm 1 mps 593 mmHg 94%
    07:00 -6°C° 0 mm 2 mps 593 mmHg 94%
    08:00 -5°C° 0 mm 2 mps 594 mmHg 95%
    09:00 -4°C° 0 mm 2 mps 594 mmHg 96%
    10:00 -3°C° 0 mm 2 mps 595 mmHg 96%
    11:00 -2°C° 0 mm 2 mps 595 mmHg 97%
    12:00 -2°C° 0 mm 2 mps 594 mmHg 97%
    13:00 -2°C° 0 mm 2 mps 594 mmHg 97%
    14:00 -2°C° 0 mm 2 mps 594 mmHg 96%
    15:00 -3°C° 0 mm 2 mps 594 mmHg 96%
    16:00 -3°C° 0 mm 2 mps 594 mmHg 95%
    17:00 -3°C° 0 mm 2 mps 594 mmHg 94%
    18:00 -5°C° 0 mm 3 mps 594 mmHg 94%
    19:00 -5°C° 0 mm 3 mps 594 mmHg 93%
    20:00 -5°C° 0 mm 3 mps 593 mmHg 93%
    21:00 -5°C° 0 mm 3 mps 593 mmHg 92%
    22:00 -5°C° 0 mm 3 mps 593 mmHg 92%
    23:00 -5°C° 0 mm 3 mps 593 mmHg 92%

    21 November, Thursday

    Time Temperature Precipitation Wind Pressure Humidity
    00:00 -7°C° 0 mm 4 mps 593 mmHg 91%
    01:00 -7°C° 0 mm 4 mps 593 mmHg 91%
    02:00 -7°C° 0 mm 4 mps 592 mmHg 91%
    03:00 -8°C° 0 mm 4 mps 592 mmHg 91%
    04:00 -8°C° 0 mm 4 mps 591 mmHg 91%
    05:00 -8°C° 0 mm 4 mps 591 mmHg 92%
    06:00 -7°C° 0 mm 3 mps 592 mmHg 92%
    07:00 -6°C° 0 mm 3 mps 592 mmHg 92%
    08:00 -6°C° 0 mm 3 mps 592 mmHg 92%
    09:00 -5°C° 0 mm 3 mps 592 mmHg 92%
    10:00 -5°C° 0 mm 3 mps 593 mmHg 92%
    11:00 -4°C° 0 mm 4 mps 593 mmHg 92%
    12:00 -4°C° 0 mm 4 mps 592 mmHg 92%
    13:00 -4°C° 0 mm 4 mps 592 mmHg 92%
    14:00 -5°C° 0 mm 4 mps 592 mmHg 92%
    15:00 -5°C° 0 mm 4 mps 592 mmHg 91%
    16:00 -7°C° 0 mm 4 mps 591 mmHg 91%
    17:00 -7°C° 0 mm 4 mps 591 mmHg 91%
    18:00 -8°C° 0 mm 4 mps 591 mmHg 91%
    19:00 -8°C° 0 mm 4 mps 591 mmHg 91%
    20:00 -8°C° 0 mm 4 mps 591 mmHg 91%
    21:00 -8°C° 0 mm 4 mps 591 mmHg 91%
    22:00 -8°C° 0 mm 4 mps 591 mmHg 91%
    23:00 -9°C° 0 mm 4 mps 591 mmHg 90%

    22 November, Friday

    Time Temperature Precipitation Wind Pressure Humidity
    00:00 -9°C° 0 mm 4 mps 591 mmHg 89%
    01:00 -9°C° 0 mm 4 mps 591 mmHg 88%
    02:00 -9°C° 0 mm 4 mps 591 mmHg 88%
    03:00 -9°C° 0 mm 4 mps 591 mmHg 87%
    04:00 -9°C° 0 mm 4 mps 591 mmHg 86%
    05:00 -9°C° 0 mm 4 mps 591 mmHg 86%
    06:00 -8°C° 0 mm 3 mps 591 mmHg 85%
    07:00 -8°C° 0 mm 3 mps 591 mmHg 85%
    08:00 -6°C° 0 mm 3 mps 592 mmHg 86%
    09:00 -5°C° 0 mm 3 mps 592 mmHg 88%
    10:00 -4°C° 0 mm 4 mps 593 mmHg 90%
    11:00 -3°C° 0 mm 4 mps 593 mmHg 91%
    12:00 -3°C° 0 mm 4 mps 593 mmHg 93%
    13:00 -2°C° 0 mm 4 mps 592 mmHg 94%
    14:00 -3°C° 0 mm 4 mps 592 mmHg 94%
    15:00 -3°C° 0 mm 4 mps 592 mmHg 93%
    16:00 -3°C° 0 mm 4 mps 592 mmHg 92%
    17:00 -4°C° 0 mm 4 mps 592 mmHg 92%
    18:00 -4°C° 0 mm 4 mps 591 mmHg 92%
    19:00 -4°C° 0 mm 4 mps 591 mmHg 91%
    20:00 -4°C° 0 mm 4 mps 592 mmHg 91%
    21:00 -4°C° 0 mm 4 mps 592 mmHg 91%
    22:00 -4°C° 0 mm 4 mps 592 mmHg 91%
    23:00 -4°C° 0 mm 4 mps 592 mmHg 91%
    Show more